Flag for Russia Past Weather in Petropavlovsk-Kamchatsky, Russia — Yesterday and Last 2 Weeks

Now
34 °F

Clear.


Feels Like: 25 °F
Forecast: 20 / 35 °F
Wind: 13 mph from West

Location: Petropavlovsk-Kamchatskij

Current Time: Dec 4, 2016 at 6:03:33 pm

Latest Report: Dec 4, 2016 at 5:30 pm


Visibility: N/A

Pressure: 29.59 "Hg

Humidity: 51%

Dew Point: 18 °F

Location of Petropavlovsk-KamchatskyLocation

Past Weather in Petropavlovsk-Kamchatsky — Graph

°F

Petropavlovsk-Kamchatsky Temperature Yesterday

Maximum temperature yesterday: 34 °F (at 2:00 am)
Minimum temperature yesterday: 25 °F (at 11:30 pm)
Average temperature yesterday: 31 °F

High & Low Weather Summary for the Past Weeks

 TemperatureHumidityPressure
High39 °F (Nov 22, 3:00 pm)100% (Nov 21, 6:00 pm)30.21 "Hg (Nov 21, 6:00 pm)
Low3 °F (Nov 20, 8:00 am)37% (Nov 27, 2:00 pm)28.77 "Hg (Nov 24, 1:30 pm)
Average22 °F72%29.54 "Hg
* Reported Nov 19 5:00 pm — Dec 4 5:00 pm, Petropavlovsk-Kamchatsky, Weather by CustomWeather, © 2016

Note: Actual official high and low records may vary slightly from our data, if they occured in-between our weather recording intervals... More about our weather records

Advertising

Petropavlovsk-Kamchatsky Weather History for the Previous 24 Hours

Scroll right to see more
 ConditionsComfort  
Time TempWeatherWind HumidityBarometerVisibility
5:00 pm
Sun, Dec 4
34 °FClear.17 mph51%29.56 "HgN/A
4:30 pm34 °FClear.15 mph51%29.56 "HgN/A
4:00 pm36 °FClear.13 mph52%29.56 "HgN/A
3:30 pm36 °FClear.17 mph52%29.53 "HgN/A
3:00 pm36 °FClear.15 mph52%29.53 "HgN/A
2:30 pm36 °FClear.13 mph52%29.50 "HgN/A
2:00 pm34 °FClear.1 mph60%29.50 "HgN/A
1:30 pm30 °FClear.3 mph69%29.50 "HgN/A
1:00 pm32 °FClear.8 mph64%29.50 "HgN/A
12:30 pm32 °FClear.8 mph64%29.47 "HgN/A
12:00 pm27 °FClear.8 mph69%29.47 "HgN/A
11:30 am28 °FClear.10 mph69%29.47 "HgN/A
11:00 am28 °FClear.13 mph69%29.47 "HgN/A
10:30 am16 °FClear.10 mph86%29.45 "HgN/A
10:00 am16 °FClear.10 mph86%29.45 "HgN/A
9:30 am14 °FClear.10 mph85%29.42 "HgN/A
9:00 am18 °FClear.8 mph79%29.39 "HgN/A
8:30 am18 °FClear.8 mph86%29.39 "HgN/A
8:00 am18 °FClear.8 mph79%29.36 "HgN/A
7:30 am16 °FClear.10 mph86%29.36 "HgN/A
7:00 am18 °FClear.8 mph86%29.33 "HgN/A
6:00 am18 °FClear.13 mph79%29.30 "HgN/A
5:00 am19 °FClear.8 mph86%29.27 "HgN/A
4:00 am18 °FClear.6 mph93%29.24 "HgN/A
3:00 am19 °FClear.6 mph93%29.21 "HgN/A
2:30 am16 °FClear.1 mph93%29.18 "HgN/A
2:00 am21 °FClear.3 mph93%29.18 "HgN/A
1:30 am21 °FClear.3 mph93%29.15 "HgN/A
1:00 am23 °FClear.6 mph93%29.15 "HgN/A
12:30 am23 °FClear.No wind93%29.12 "HgN/A
12:00 am25 °FClear.6 mph93%29.12 "HgN/A
11:30 pm
Sat, Dec 3
25 °FPassing clouds.6 mph93%29.09 "HgN/A
11:00 pm27 °FPassing clouds.8 mph93%29.09 "HgN/A
10:30 pm28 °FPassing clouds.8 mph86%29.06 "HgN/A
10:00 pm28 °FSnow flurries. Passing clouds.6 mph93%29.06 "HgN/A
9:30 pm30 °FMostly cloudy.6 mph80%29.06 "HgN/A
9:00 pm30 °FSnow flurries. Mostly cloudy.8 mph80%29.03 "HgN/A
8:30 pm32 °FSnow flurries. Mostly cloudy.6 mph80%29.03 "HgN/A
8:00 pm32 °FMostly cloudy.8 mph80%29.03 "HgN/A
7:30 pm30 °FChilly.10 mph86%29.03 "Hg2 mi
7:00 pm32 °FSnow flurries. Partly cloudy.6 mph80%29.00 "HgN/A
6:30 pm32 °FPassing clouds.8 mph80%29.00 "HgN/A
6:00 pm30 °FSnow flurries. Passing clouds.10 mph93%29.00 "HgN/A
Weather by CustomWeather, © 2016

See weather overviewHow to use our weather pages